Theta_e
319 319 318 319 317 315 316 315 316 317 317 317 317 316 314 312 307 303 303 303 303 302 305 303 301 303 303 305 307 307 306 307 308 309 308 309 309 306 305 304 303 303 303 304 304 305 305 306 306 306 307 309 309 308 307 307 306 306 306 307 307 306 305 305 305 305 306 308 307 305 305 306 306 305
317 316 315 316 313 314 314 314 315 315 316 315 315 315 315 315 310 309 305 305 306 303 303 303 300 301 302 304 306 307 306 305 309 308 308 308 308 305 305 303 302 302 302 303 302 304 304 305 305 306 307 308 307 307 307 306 305 305 305 306 305 305 304 304 305 305 305 305 305 305 305 305 305 305
315 314 314 314 312 313 313 313 313 313 313 314 313 313 313 314 314 312 308 305 305 307 303 301 302 301 303 303 306 305 305 306 308 308 308 306 306 306 307 304 303 303 302 302 303 304 304 304 304 305 306 307 306 306 306 305 304 304 304 304 304 304 303 304 305 306 306 305 306 306 305 305 305 305
314 313 312 312 311 312 311 311 311 310 311 313 311 311 311 312 315 313 309 306 305 305 303 303 301 302 305 305 304 304 304 306 308 307 307 308 308 307 307 305 304 303 301 301 301 302 302 302 303 304 305 305 305 305 304 303 303 303 303 303 302 302 303 303 304 305 305 305 306 306 305 304 304 304
313 312 310 311 311 312 311 310 310 308 309 310 310 310 310 310 312 311 309 307 303 303 305 304 303 304 305 302 303 303 304 305 306 306 307 308 308 307 307 307 305 303 302 301 301 300 300 301 303 304 303 303 303 303 301 301 301 302 302 301 301 301 302 303 303 303 304 304 305 304 303 302 303 303
312 313 310 309 310 311 310 310 307 307 307 307 306 307 308 308 310 313 309 306 303 300 301 301 302 303 304 301 303 304 304 305 306 305 305 306 306 306 307 306 307 303 302 301 300 300 300 300 300 300 300 300 299 300 299 299 299 301 301 298 298 299 300 302 302 303 303 303 303 302 302 302 302 303
311 311 311 310 310 311 310 310 310 310 308 307 306 306 307 308 308 308 309 306 303 301 300 303 301 303 303 304 302 303 304 305 304 303 304 305 307 307 307 307 307 303 301 300 300 300 300 300 300 299 299 299 299 299 299 299 299 299 299 298 298 299 300 300 301 302 303 302 302 302 301 302 303 303
309 310 310 310 310 310 309 308 308 308 308 307 305 306 307 307 307 307 308 308 305 303 299 300 300 302 302 302 303 303 304 304 305 304 304 306 306 307 306 307 307 305 302 301 301 300 300 300 300 299 299 299 299 299 298 299 298 299 298 298 299 299 299 299 299 300 301 300 300 300 300 301 302 303
310 310 310 309 310 310 308 308 306 307 307 306 306 305 305 305 306 306 306 306 306 303 302 301 303 303 302 303 303 303 302 303 303 305 305 304 305 307 308 309 308 305 304 302 302 301 301 300 300 300 300 299 299 299 298 299 299 299 299 299 299 299 299 299 300 300 300 300 299 300 300 300 301 303
311 310 310 309 309 309 308 307 307 307 307 306 305 304 304 304 306 306 306 306 305 304 302 302 300 303 302 302 303 303 303 303 302 303 304 306 306 306 306 307 307 308 308 308 308 304 303 302 301 301 300 299 298 299 299 299 299 299 300 299 299 298 298 298 298 299 298 299 299 299 299 298 300 301
310 310 310 310 309 309 309 308 307 307 307 306 305 305 306 305 305 305 304 303 303 303 302 302 303 302 302 304 302 302 304 304 302 302 302 302 304 305 305 305 307 308 307 306 303 303 303 303 304 302 299 299 300 300 300 300 300 300 300 298 297 297 297 297 297 298 298 299 298 298 297 297 298 299
310 310 310 309 309 309 309 308 308 307 306 306 305 306 306 306 305 304 304 303 302 302 301 300 300 302 302 301 303 303 304 304 304 304 302 300 301 303 305 306 305 306 305 305 306 305 304 304 304 302 302 303 302 301 302 303 302 302 300 298 297 298 297 297 297 298 298 298 298 297 297 297 298 297
309 309 310 309 309 310 308 307 306 307 306 305 304 305 306 306 306 305 304 303 302 301 301 301 302 300 300 301 302 301 301 300 300 303 304 303 304 303 303 304 306 305 304 305 305 306 307 306 306 307 307 307 306 306 303 304 303 301 299 297 298 297 298 298 298 298 298 298 298 297 297 297 297 297
309 309 309 310 307 306 305 302 300 299 301 304 305 305 307 306 306 305 303 302 301 301 300 300 300 300 300 300 302 301 302 303 304 304 305 302 302 304 303 304 305 306 304 303 303 304 307 307 306 306 305 307 308 307 307 306 303 300 297 297 297 297 297 297 297 297 297 297 297 297 297 297 297 297
309 309 308 309 307 306 304 303 297 297 296 297 298 300 303 307 307 305 303 302 303 301 301 302 301 300 300 301 302 302 302 303 303 302 303 302 302 301 299 297 302 309 305 303 302 303 307 307 305 305 306 307 307 308 307 301 299 298 298 297 297 297 297 297 297 296 296 296 296 296 296 296 297 297
309 308 308 309 309 309 308 306 302 299 296 295 295 295 296 296 297 299 306 305 303 303 302 301 301 301 301 301 302 302 302 302 303 304 304 303 301 301 299 300 299 304 308 303 302 302 305 306 305 304 305 307 308 307 303 300 299 298 297 297 297 297 297 297 297 296 296 296 296 296 296 296 296 296
308 308 307 308 310 310 307 305 305 304 301 297 295 295 296 295 294 293 292 295 308 306 303 302 302 302 302 301 302 303 304 305 303 302 301 302 302 303 302 300 300 304 307 304 301 299 303 304 303 302 305 305 307 307 303 301 299 298 297 297 297 296 296 296 296 296 296 296 296 296 296 296 296 296
309 308 307 306 308 309 307 307 306 305 303 302 301 301 302 302 301 296 292 292 291 300 306 304 302 304 305 302 304 306 306 304 302 302 301 303 302 302 301 304 305 307 307 303 301 300 300 303 303 302 303 305 306 307 303 299 299 298 297 297 296 296 296 296 296 295 295 295 295 295 296 296 296 296
309 309 308 308 308 308 307 306 305 304 303 303 303 302 302 303 305 306 306 305 306 305 306 306 306 306 307 307 307 307 307 306 306 306 305 305 304 304 306 307 309 306 308 306 303 297 300 303 301 302 303 304 304 306 302 300 299 298 298 297 296 296 296 296 295 295 295 295 295 295 295 295 295 295
309 309 309 308 308 307 307 302 296 300 304 302 302 301 302 302 304 307 308 299 301 308 308 308 307 307 309 299 307 307 306 306 307 305 305 305 305 303 301 299 302 301 306 307 302 299 299 303 301 302 304 304 303 305 306 301 300 299 298 297 297 296 296 296 295 295 295 295 295 295 295 295 295 295
308 308 308 308 307 306 306 298 293 294 299 303 302 301 301 301 302 304 308 294 290 292 293 293 292 291 291 291 291 291 291 298 302 304 302 303 304 300 298 299 299 300 302 307 304 301 299 302 301 301 303 303 302 304 305 307 301 300 298 297 297 297 297 296 295 295 295 295 295 295 295 295 295 296
307 307 307 307 307 305 305 293 292 292 299 303 302 301 300 300 301 304 307 305 303 292 292 292 291 291 291 291 291 291 291 291 295 303 301 303 302 300 299 297 299 300 302 304 304 300 299 301 302 300 302 302 303 303 304 305 304 301 300 299 298 298 297 296 295 295 295 295 295 295 295 295 296 297
306 306 306 305 305 306 303 291 292 292 299 303 302 301 301 300 301 303 306 304 304 304 304 304 303 301 298 301 304 305 294 293 296 304 305 305 303 299 299 299 299 297 299 305 306 299 299 300 301 301 299 298 301 304 303 304 305 306 306 305 305 300 298 297 295 295 296 295 295 296 295 295 295 297
306 305 306 303 295 295 293 292 291 291 294 302 303 303 302 301 300 303 305 305 304 305 303 304 305 305 307 307 306 307 308 303 303 306 307 306 304 302 301 300 299 298 298 306 304 300 301 302 300 303 300 295 294 300 303 303 305 306 306 305 305 301 300 299 299 298 296 296 296 296 295 295 295 297
305 304 305 306 297 292 292 292 291 291 292 296 305 304 303 304 304 302 303 303 300 304 305 304 303 304 304 305 306 306 307 306 307 306 306 306 306 304 302 300 300 299 300 306 299 303 299 300 300 301 300 300 299 299 301 302 304 304 305 305 304 304 305 304 302 303 299 297 296 296 295 295 295 296
305 305 305 307 299 291 291 291 292 291 292 292 303 304 296 293 289 300 301 303 302 302 303 301 300 301 301 302 303 302 303 304 307 307 307 306 306 306 306 304 301 299 299 306 294 303 300 300 300 299 300 298 298 298 298 300 303 303 305 305 304 304 304 303 302 302 303 302 301 297 296 295 296 295
305 306 307 306 298 292 291 291 291 292 291 292 299 294 291 290 288 295 299 301 301 300 301 300 300 300 301 302 301 301 302 304 308 308 308 308 307 306 306 306 306 304 304 306 305 304 302 299 302 300 296 299 296 298 298 297 299 303 303 303 304 304 304 303 302 301 302 301 300 296 296 296 295 295
307 307 308 305 295 292 292 291 291 292 292 298 293 291 290 289 291 298 299 298 299 299 297 298 299 300 301 301 301 301 303 305 307 307 307 307 308 307 308 308 305 305 305 305 304 304 303 301 302 303 301 298 295 295 295 299 300 300 300 302 303 303 303 303 302 301 301 301 300 298 298 297 297 296
308 302 298 296 294 293 292 291 291 291 291 291 292 291 289 292 298 300 300 299 299 297 296 297 299 300 301 302 302 306 306 305 306 306 307 309 309 309 308 307 306 307 307 307 305 303 303 302 301 302 301 300 296 296 297 295 298 299 300 300 299 301 302 303 303 301 300 300 299 297 297 296 296 296
298 295 295 294 293 293 294 298 300 301 301 291 291 290 291 298 299 300 301 300 298 296 296 297 297 299 301 302 305 306 305 303 302 304 305 305 304 308 306 303 303 305 306 309 306 304 303 302 302 302 300 301 297 295 295 296 297 300 301 300 300 301 302 302 301 301 300 299 298 298 298 298 297 296
303 299 298 299 295 297 294 296 296 298 296 296 295 296 297 299 300 300 301 301 300 297 297 297 298 299 301 303 302 301 302 302 304 306 303 303 303 304 304 302 301 302 304 305 306 305 304 304 304 303 298 296 296 295 295 295 298 299 300 301 300 297 300 301 301 300 300 300 300 298 298 298 297 296
305 303 296 296 301 302 301 301 303 303 303 301 299 300 300 300 300 299 297 297 301 300 300 299 299 300 301 300 300 301 302 302 303 306 303 303 303 303 303 301 300 301 302 303 304 305 301 306 305 304 303 296 294 294 295 299 298 299 299 300 299 300 301 299 299 300 301 301 299 297 297 296 296 297
305 304 302 302 303 303 303 298 303 303 302 301 301 301 301 300 300 299 298 299 299 300 299 298 299 298 300 300 301 300 301 302 303 306 305 305 304 304 303 300 299 299 299 299 301 303 305 305 306 305 305 305 296 294 294 295 298 300 299 299 299 299 299 300 299 299 301 300 299 298 296 296 296 296
304 304 303 304 302 303 304 302 301 302 302 301 299 300 295 299 300 299 299 300 301 302 300 300 299 299 300 299 300 301 300 302 304 305 298 304 305 302 301 301 300 300 299 299 299 301 302 304 304 305 306 306 308 306 299 294 296 299 299 299 299 298 298 299 300 301 300 299 298 296 295 295 296 297
301 300 301 301 303 301 304 301 302 301 301 297 299 299 299 299 300 296 300 301 300 300 296 299 300 300 299 299 300 300 300 302 303 304 303 302 303 302 301 301 300 300 300 299 299 300 302 301 301 300 300 300 300 303 301 302 298 295 299 298 299 298 298 299 299 300 300 299 298 296 295 296 295 296
300 300 301 300 301 302 302 300 300 302 303 301 301 301 298 298 298 298 298 300 302 299 299 297 296 298 299 300 299 301 300 299 301 302 303 303 302 302 302 301 300 300 300 300 299 300 300 300 300 298 296 296 295 294 296 298 297 299 295 295 297 297 298 299 300 300 299 298 298 297 294 294 295 295
299 301 303 302 303 302 300 302 302 302 303 303 303 302 301 298 298 298 300 299 300 298 299 298 298 298 298 297 296 294 296 296 297 299 300 302 303 302 300 297 297 299 299 300 300 300 302 299 299 298 297 294 293 292 294 300 296 296 300 295 296 298 295 298 298 297 298 299 298 297 296 295 294 294
300 301 302 302 302 302 302 302 301 301 302 301 302 301 301 302 303 302 302 299 298 297 298 296 298 297 298 296 295 296 298 299 299 298 298 301 300 299 299 297 298 299 299 299 300 301 301 300 299 299 298 294 293 292 292 295 297 298 296 298 295 295 296 296 293 294 296 298 298 298 299 295 294 294
302 301 300 301 300 301 301 301 301 300 302 301 300 301 301 302 303 302 300 299 299 299 300 299 298 296 294 298 296 295 296 296 297 298 298 300 301 301 299 296 297 299 299 297 299 300 300 300 299 299 298 296 293 294 294 293 294 297 296 292 297 296 294 296 293 296 295 294 297 299 298 298 297 293
303 301 301 299 300 301 302 302 301 301 301 301 301 302 302 300 301 301 300 297 297 299 299 298 296 297 297 297 296 297 297 298 298 298 299 298 299 300 299 298 297 295 296 295 295 297 299 299 300 300 298 297 296 296 296 295 295 297 298 298 290 295 294 296 293 294 293 296 297 294 294 295 294 296
300 299 299 300 301 302 301 301 301 300 301 301 301 298 300 301 301 301 300 298 294 295 294 294 296 297 296 296 296 295 293 294 297 298 299 297 296 296 295 293 295 297 296 294 296 296 298 302 298 287 292 296 297 301 296 295 295 297 297 298 292 291 291 293 297 296 293 294 295 293 292 292 293 294
299 299 300 300 301 301 301 302 302 301 301 300 300 300 299 298 299 295 295 293 297 292 294 296 296 296 296 296 296 295 294 294 295 296 296 298 298 296 292 293 296 296 295 295 293 296 301 303 300 299 302 299 296 295 293 294 294 295 296 297 298 295 294 292 292 292 297 294 292 291 291 292 293 292
299 300 300 300 301 302 302 302 302 301 300 300 300 300 298 297 297 296 295 293 294 294 295 297 298 297 296 296 296 296 295 294 295 295 296 296 297 296 297 296 296 296 298 296 298 299 298 302 302 300 297 297 296 294 294 294 294 295 296 297 296 297 298 295 294 292 289 290 290 291 293 291 290 288
300 301 302 302 302 302 302 302 301 300 299 300 300 299 297 296 296 296 297 297 297 297 297 297 297 297 296 297 297 296 295 295 296 296 296 296 296 297 297 297 295 295 296 296 296 297 298 299 298 298 296 296 296 295 294 293 295 295 296 295 295 295 296 297 297 295 291 290 290 289 289 289 289 288
301 302 303 303 302 302 301 301 300 300 299 299 297 297 295 295 295 296 297 296 296 296 296 296 296 296 296 296 296 295 295 294 295 296 296 297 297 297 296 296 296 296 296 297 296 296 297 297 298 298 297 296 296 295 294 293 293 293 295 294 293 295 296 295 295 295 296 296 293 290 290 289 289 289
Wind_Speed
4 3 5 4 3 3 2 2 2 2 2 3 5 7 7 7 7 7 7 7 5 5 4 4 4 2 2 1 1 0 1 3 5 3 3 4 5 8 8 7 8 9 9 11 11 12 12 14 14 15 15 16 16 17 17 17 17 18 18 19 20 20 19 19 19 20 21 22 24 24 26 26 27 28
4 4 4 4 4 3 3 3 2 2 2 3 4 6 5 6 8 6 7 5 4 5 3 1 3 3 3 2 1 0 1 3 5 3 4 4 6 9 7 6 7 8 9 10 10 11 12 13 15 15 16 16 16 16 17 17 17 18 19 19 19 18 18 19 20 20 21 23 23 26 27 28 28 28
5 6 6 4 4 4 4 3 3 2 2 2 3 3 2 4 6 6 6 5 3 2 5 3 2 3 3 2 1 1 1 2 4 3 4 5 7 9 4 5 7 8 9 10 11 12 12 12 13 14 15 16 17 17 17 17 17 18 18 17 17 18 18 19 19 21 23 24 25 26 28 28 29 28
5 7 7 6 5 5 4 4 4 3 2 2 3 3 4 3 3 5 5 6 5 3 3 4 4 4 3 1 1 0 1 1 3 5 4 5 5 5 5 4 5 7 9 10 11 11 11 11 12 13 14 15 16 17 17 16 16 16 15 16 16 15 17 18 19 21 23 24 25 26 27 28 28 28
6 6 7 6 6 5 6 5 4 4 4 3 3 2 3 4 4 5 5 5 7 4 2 2 3 3 2 3 0 1 1 3 4 5 5 5 5 5 5 5 4 5 8 10 11 11 12 12 13 14 14 14 15 15 15 14 14 14 15 16 14 15 16 18 18 20 22 23 24 26 28 29 28 28
5 6 7 7 6 5 6 6 6 5 5 4 4 4 4 4 5 4 5 5 6 7 4 4 4 4 3 2 2 2 3 3 4 5 5 5 5 5 5 5 5 5 8 10 11 12 12 12 13 13 13 14 14 14 14 15 15 15 15 16 16 17 18 18 19 21 23 23 23 25 27 29 28 27
6 7 7 7 6 5 6 5 5 4 4 4 4 4 3 4 5 4 4 6 6 7 6 4 5 4 3 0 2 1 1 2 4 5 5 5 4 4 4 5 5 4 7 9 11 11 12 13 13 13 13 13 13 14 14 15 15 15 15 16 17 18 19 19 18 21 23 23 23 23 25 27 27 27
8 8 7 7 7 7 7 6 5 4 4 4 4 5 4 4 5 4 4 4 6 6 7 5 4 4 3 3 2 1 1 2 3 4 5 5 4 5 5 5 5 6 9 10 10 11 11 12 12 12 13 13 13 14 14 15 16 16 16 16 17 17 18 19 20 20 20 21 21 21 22 26 28 27
8 8 8 8 8 8 7 6 5 5 5 4 4 4 4 4 4 4 4 4 5 6 6 6 3 3 3 2 1 1 2 2 2 3 4 6 6 5 4 4 4 6 9 10 9 9 10 11 10 11 12 13 13 14 15 15 16 16 16 16 17 17 18 20 19 18 20 20 21 21 24 25 26 26
8 8 8 8 8 8 8 7 6 6 6 4 4 5 5 5 5 5 5 4 5 5 5 6 5 3 3 3 1 1 1 2 3 3 4 4 5 7 6 5 4 4 5 6 7 7 8 10 12 11 12 13 13 13 14 15 15 15 15 16 16 17 19 19 20 20 21 21 20 21 20 21 24 24
8 8 8 8 8 8 8 8 7 7 6 5 5 5 5 5 6 5 5 5 6 5 5 4 3 4 3 1 2 2 0 2 2 3 4 4 4 5 7 7 5 4 6 8 7 8 8 9 9 11 13 13 12 13 14 15 15 14 14 15 16 18 18 19 19 18 20 21 20 19 18 18 20 22
7 8 7 8 8 8 7 8 7 7 6 5 6 5 5 5 6 5 5 5 5 5 5 5 5 3 3 4 2 1 2 3 2 0 3 5 6 6 6 5 7 7 7 8 8 8 8 9 10 11 11 10 10 14 13 14 13 12 13 16 17 18 18 19 19 19 20 20 20 18 18 19 22 21
7 7 7 7 7 6 6 8 8 8 7 6 6 6 6 6 6 6 5 5 5 5 5 5 4 4 4 3 3 2 1 1 2 3 2 4 4 5 6 5 4 5 7 8 8 7 7 8 9 8 9 9 11 12 12 11 10 13 16 17 17 17 18 19 19 19 20 19 19 19 18 19 20 20
8 8 6 5 7 7 8 9 9 8 8 7 7 8 7 7 6 6 6 5 5 5 6 6 6 5 5 4 3 1 1 1 2 3 3 4 5 5 5 4 3 3 5 7 8 9 7 7 8 9 9 9 9 9 10 10 12 15 17 16 17 17 18 19 19 19 19 19 19 19 19 19 19 20
8 6 6 6 7 8 8 8 9 9 8 6 6 7 6 5 6 7 6 5 6 6 5 5 5 5 4 4 3 3 2 2 2 2 2 3 4 5 7 7 5 3 4 6 7 8 8 7 9 10 9 9 9 9 10 14 16 15 16 17 17 18 18 19 19 19 19 19 19 19 19 19 19 19
8 8 7 6 6 7 8 8 7 7 7 8 9 8 6 4 1 3 0 5 6 6 5 6 6 5 5 4 4 3 3 2 2 2 3 3 3 5 6 6 7 5 3 6 6 8 8 7 8 10 10 9 9 9 13 16 14 15 16 16 17 17 18 19 19 19 19 19 19 19 19 19 18 18
9 8 8 7 6 6 10 9 8 8 7 7 9 9 6 3 3 2 2 6 2 5 5 6 6 6 4 5 4 3 2 1 3 3 3 3 4 4 5 6 7 6 4 5 6 9 9 8 9 10 10 11 10 10 10 13 16 16 15 16 16 17 18 18 19 19 19 19 19 19 19 20 19 19
10 10 9 9 8 7 8 8 9 9 8 8 6 6 5 5 5 4 4 4 2 4 5 6 6 6 4 4 3 3 2 3 3 3 3 4 5 5 6 8 8 7 2 4 5 7 9 9 9 10 10 11 11 10 12 15 15 15 15 16 16 17 17 18 18 18 19 19 19 19 19 19 19 19
10 10 9 10 9 9 9 7 9 9 9 9 7 6 5 5 6 6 6 7 6 5 5 5 5 3 5 4 2 2 3 4 4 4 5 5 6 7 8 9 6 6 3 2 3 8 10 9 10 9 11 11 11 11 12 12 13 14 15 16 16 15 16 17 17 17 18 18 18 19 19 19 18 19
9 10 9 9 9 9 8 9 12 10 8 8 7 6 6 6 5 5 2 2 2 4 5 5 5 3 1 3 3 3 2 3 3 4 5 5 6 6 6 7 6 8 2 3 3 7 10 9 9 10 10 10 11 12 10 11 11 13 16 16 15 14 15 16 16 17 17 17 17 18 19 20 19 20
8 8 10 9 8 9 9 12 13 12 11 9 8 7 7 6 5 7 4 4 4 5 5 6 6 7 6 5 6 6 5 5 4 4 5 5 3 6 7 7 7 8 9 1 1 6 9 9 10 10 9 10 11 11 11 10 12 14 15 15 14 13 14 15 16 16 15 16 17 17 19 20 20 21
7 8 11 11 9 9 9 14 14 14 11 9 8 8 8 7 7 7 4 3 3 4 4 5 7 7 7 7 8 9 8 7 6 5 5 4 4 6 7 8 8 8 8 2 1 6 9 11 9 10 9 10 8 10 11 12 12 13 12 12 13 12 12 14 16 14 13 14 15 17 18 19 21 17
7 7 9 12 10 11 11 16 15 15 12 9 9 9 8 8 8 7 7 6 6 5 5 5 5 6 8 7 7 6 8 8 9 8 7 4 5 6 7 8 8 8 8 3 1 7 9 9 9 9 9 9 9 9 11 12 11 11 10 12 13 13 13 13 14 13 12 12 13 15 18 19 19 15
7 7 8 10 12 12 15 17 16 16 14 10 9 8 8 7 7 6 6 8 7 7 7 6 5 6 4 4 5 5 5 6 8 8 7 5 5 5 6 7 7 8 8 2 2 6 8 7 9 9 8 9 10 12 11 11 11 10 11 12 11 15 14 13 13 14 11 10 10 13 17 18 18 14
9 8 8 8 12 13 14 16 16 16 15 12 8 9 8 8 4 4 4 6 5 7 6 6 5 6 6 6 6 6 5 5 5 6 6 6 5 5 6 7 8 8 9 3 4 5 6 8 9 9 8 7 10 12 11 12 11 11 12 11 12 13 13 12 12 13 13 12 11 15 15 17 17 13
8 8 8 8 12 15 13 14 16 16 15 14 8 9 10 7 9 4 4 5 6 7 7 7 7 8 8 8 8 7 7 6 5 5 5 5 6 6 6 6 7 8 10 3 7 5 6 7 8 9 9 9 9 10 12 10 11 12 12 11 12 12 13 13 12 13 13 12 12 13 14 17 16 14
9 8 8 9 13 16 14 14 15 15 15 11 10 11 9 9 8 4 4 5 6 6 7 7 8 8 8 8 8 8 7 6 3 3 4 4 5 6 6 7 6 7 8 8 6 5 4 6 8 8 8 9 8 10 10 12 12 11 11 13 12 12 13 12 12 13 13 13 11 12 12 14 15 16
8 8 9 9 15 15 15 15 15 15 13 10 13 11 11 10 8 5 5 5 6 6 6 7 8 8 8 8 8 8 7 5 4 4 5 5 5 6 5 6 7 8 8 7 5 4 4 6 8 8 9 7 7 8 9 10 11 12 13 13 12 13 13 12 13 13 13 12 12 11 10 11 11 11
9 10 13 14 16 16 16 16 15 12 13 15 14 12 11 10 6 7 6 6 6 7 7 8 8 8 8 8 7 4 3 4 4 5 5 5 5 4 5 6 7 6 5 4 4 4 4 5 7 8 9 8 6 7 6 9 12 12 12 14 13 14 13 13 13 13 13 12 11 9 9 10 10 10
12 13 13 15 15 15 13 10 7 8 9 14 11 10 11 7 7 7 7 7 6 7 8 8 8 8 7 6 3 1 2 4 6 5 5 5 6 4 4 5 6 6 5 4 4 3 3 4 5 6 8 8 5 6 6 7 10 11 12 12 13 11 11 13 13 13 14 14 12 8 7 8 9 10
7 10 11 9 11 9 13 10 7 8 7 7 6 6 7 8 7 7 7 7 7 7 7 7 7 7 6 3 2 5 5 5 6 4 4 5 6 6 4 5 8 7 5 6 4 4 2 3 4 4 5 5 6 5 5 5 9 11 12 12 12 13 14 14 13 13 14 14 12 9 6 8 9 9
8 8 7 8 7 6 6 6 5 6 6 7 8 8 8 8 7 6 3 2 6 6 6 6 5 5 4 6 6 5 6 6 6 4 4 4 5 5 4 6 7 7 7 6 7 2 4 2 4 5 5 4 5 5 4 7 8 11 11 12 11 11 13 13 14 13 15 14 13 12 9 9 10 9
7 7 7 8 8 8 7 5 7 7 6 6 7 7 7 7 7 6 7 8 8 7 6 7 7 7 6 6 6 5 6 6 6 4 4 4 5 4 4 7 7 8 8 8 8 7 4 5 5 6 6 6 4 4 3 4 8 10 11 11 11 12 13 13 13 14 15 13 13 12 11 8 9 10
8 9 9 9 8 8 8 7 6 7 7 7 6 6 7 7 7 7 8 8 8 7 7 7 7 7 6 6 6 6 6 6 5 4 3 4 3 5 6 6 7 7 6 7 8 8 7 6 6 7 7 7 7 6 3 3 7 9 10 10 11 12 12 12 12 14 14 13 14 15 14 13 9 9
7 6 7 7 8 8 8 7 8 7 6 5 5 6 7 8 8 7 8 8 7 7 4 6 7 6 5 6 6 6 5 5 5 3 4 4 4 5 5 6 6 6 6 7 8 6 5 6 7 8 9 10 10 5 6 2 5 7 9 9 10 10 11 11 12 12 13 13 13 13 13 12 13 11
8 8 7 7 8 9 8 6 8 8 9 9 8 8 6 6 8 8 7 8 8 7 6 5 4 4 5 7 6 5 5 5 5 5 4 4 4 4 4 5 5 6 6 7 7 5 4 6 6 7 9 11 9 9 5 6 0 5 7 8 8 9 10 11 11 11 12 13 13 13 12 14 14 14
8 9 11 10 10 9 8 9 9 8 8 8 8 8 8 6 7 7 8 7 7 6 7 5 5 4 4 4 4 3 5 4 4 4 5 5 4 4 4 4 5 5 5 6 6 5 3 5 6 5 8 7 10 9 9 5 5 5 8 7 8 9 8 11 11 11 11 12 13 13 12 13 13 14
7 9 10 10 10 9 9 9 8 7 7 7 7 6 6 7 7 7 7 6 7 7 6 5 5 4 4 4 3 3 4 4 4 3 4 5 3 3 3 3 5 5 5 6 6 5 2 4 4 5 6 6 8 9 9 8 5 2 5 6 6 8 8 10 9 10 11 11 11 11 11 10 12 10
9 10 10 8 7 8 8 8 8 8 8 7 7 7 7 7 7 6 6 7 7 8 8 7 4 4 3 5 5 4 4 3 3 3 3 3 4 5 5 3 4 4 4 5 6 6 4 4 5 5 6 4 5 6 6 7 6 7 3 4 6 6 7 7 8 9 11 11 12 10 9 9 6 7
8 9 8 8 7 8 8 8 8 9 8 8 9 9 9 8 7 7 6 6 6 7 6 4 4 5 4 4 4 3 3 6 5 4 4 3 3 4 4 3 3 3 3 3 4 6 5 5 4 5 5 3 4 4 5 5 7 6 2 5 3 5 5 6 7 8 9 11 11 10 10 9 9 12
9 8 7 8 8 8 8 8 8 8 8 8 8 8 8 9 8 7 6 5 4 4 4 4 4 6 5 4 4 3 4 4 4 4 4 3 3 3 2 2 3 3 3 4 5 5 5 4 2 1 4 4 4 6 4 4 6 6 7 3 7 5 4 4 6 8 7 10 10 8 9 11 10 11
9 8 7 8 8 8 8 8 7 8 8 7 7 7 8 7 7 5 4 5 6 3 3 4 4 4 4 3 3 4 5 5 4 4 4 3 3 3 3 3 3 3 3 4 3 5 2 2 2 4 4 3 2 4 6 6 6 6 6 5 5 5 3 5 5 4 4 9 10 9 8 8 8 10
9 9 9 9 9 9 8 8 8 7 7 8 8 8 7 6 4 4 4 3 4 4 5 5 5 4 4 4 4 4 4 5 4 4 4 4 4 4 3 3 4 4 4 4 5 4 1 1 1 2 1 2 2 2 4 5 5 4 5 6 6 6 4 5 11 3 7 3 7 6 6 5 7 10
9 9 9 9 9 9 8 7 7 7 8 7 8 8 5 5 5 6 5 6 6 7 6 5 5 4 4 5 5 4 5 5 5 4 5 4 4 4 4 4 3 3 3 4 4 4 1 1 0 1 3 3 2 3 4 4 4 4 4 5 5 5 6 6 6 4 8 8 11 7 6 4 2 4
8 8 8 8 7 7 7 7 7 7 7 7 6 5 5 5 6 6 6 6 6 6 5 5 6 5 5 5 5 5 5 7 5 4 4 4 4 4 3 3 4 3 4 3 4 4 3 2 1 1 2 1 0 1 2 2 3 4 4 4 5 5 5 6 7 7 6 7 10 12 10 9 5 2
Wind_Direction
177 183 183 198 161 159 150 167 173 183 197 211 204 207 209 204 204 182 200 197 191 166 199 199 128 118 121 105 92 24 358 21 323 356 353 355 6 355 333 337 341 340 336 335 331 330 333 335 336 335 334 334 335 334 331 330 329 325 323 324 325 325 321 317 314 313 311 311 311 311 311 314 315 314
167 161 166 163 154 136 156 136 134 153 180 189 201 213 223 224 228 203 210 180 180 148 142 204 133 135 114 122 114 33 304 28 300 0 360 359 7 328 306 337 341 340 337 332 331 330 330 329 331 331 329 330 331 330 328 329 326 323 323 324 323 319 318 316 316 316 315 315 314 313 312 313 316 316
165 161 156 151 136 140 128 125 123 126 161 174 180 193 205 221 240 218 217 197 141 157 155 124 101 108 112 96 128 195 298 37 314 351 359 2 350 296 339 341 340 339 336 333 330 332 329 324 321 321 322 325 328 327 327 326 322 320 320 318 317 317 315 314 314 316 319 319 317 314 313 314 316 314
170 159 156 154 146 143 138 131 127 128 125 151 170 175 185 186 212 212 209 230 140 160 127 131 132 138 130 148 194 95 355 108 273 356 355 359 321 330 353 344 327 335 336 330 328 327 325 318 317 319 322 325 325 326 325 320 315 315 312 315 315 309 311 312 313 314 316 318 318 316 316 316 315 313
167 164 155 148 143 150 145 138 138 134 131 137 143 155 170 173 179 191 189 175 128 131 124 140 141 134 183 152 33 30 8 360 357 342 1 356 352 348 341 344 346 337 334 326 322 322 321 320 320 322 322 320 319 318 315 312 311 310 312 314 309 307 307 310 311 312 313 316 318 319 318 317 315 312
165 159 153 149 148 155 145 144 146 144 146 144 140 145 166 172 169 181 173 151 150 145 156 162 151 149 211 165 110 59 6 358 345 342 347 354 357 354 344 341 356 337 324 324 320 318 319 318 317 317 318 316 313 311 310 310 310 309 310 310 309 311 312 312 312 313 314 316 316 317 319 318 316 313
161 161 155 153 152 153 146 144 132 136 137 132 127 128 140 140 144 156 157 147 142 148 147 154 161 157 158 147 99 72 39 341 334 329 346 349 348 350 339 334 335 330 321 316 313 313 315 315 314 313 310 309 308 308 308 308 308 310 311 311 312 312 313 313 312 312 313 313 314 314 316 318 317 314
169 168 159 157 159 159 149 146 141 138 133 133 125 121 116 120 122 125 130 142 140 150 144 170 168 150 156 158 153 99 329 4 344 339 334 333 351 348 345 334 329 333 316 310 306 305 303 304 302 301 301 303 308 309 309 310 310 310 310 310 311 312 313 314 314 313 309 310 310 311 311 317 317 315
174 171 168 161 163 162 151 147 149 144 140 134 131 124 121 119 118 121 129 128 138 147 145 141 134 146 156 128 120 38 354 1 333 341 345 345 349 349 336 327 325 300 284 280 278 282 287 283 291 302 304 309 311 310 308 306 307 307 308 310 312 313 314 316 314 311 312 311 310 309 314 317 316 315
175 174 168 164 165 164 159 156 146 147 145 137 133 129 126 125 123 119 118 126 135 136 134 144 145 168 161 163 147 69 8 333 337 345 344 339 350 345 347 345 327 325 324 329 333 320 314 328 318 305 307 306 303 302 303 304 305 307 310 312 314 316 316 315 316 315 314 312 311 311 314 315 314 313
175 174 167 164 166 169 163 154 155 151 148 148 144 138 132 131 131 126 123 130 132 131 132 136 147 149 150 210 175 142 239 256 289 329 336 348 3 350 341 335 336 329 326 322 302 312 303 294 297 307 297 296 296 302 307 305 303 306 310 314 317 317 315 315 315 313 314 315 314 312 312 312 311 311
176 174 168 168 171 173 163 160 155 151 153 155 150 144 143 143 138 131 132 137 139 144 155 161 162 165 157 172 197 206 234 230 200 18 333 335 343 345 335 334 336 338 334 334 333 330 329 331 316 304 299 298 309 307 303 305 300 302 315 319 317 315 315 316 315 315 315 315 315 315 314 312 313 310
174 173 168 169 173 166 150 149 152 162 159 162 158 155 157 156 147 141 147 148 153 161 164 158 161 166 180 186 185 201 208 348 6 344 303 299 328 333 331 348 351 344 329 321 320 323 330 327 327 322 323 328 318 309 297 295 308 324 319 315 313 314 316 316 315 316 316 315 315 315 315 313 310 306
176 173 168 161 151 145 142 147 153 153 165 170 165 164 167 164 157 154 154 160 168 170 174 174 174 183 188 178 190 197 200 272 273 267 277 315 339 320 324 323 351 345 333 324 323 325 333 321 319 326 327 327 317 318 318 330 321 313 311 312 314 316 316 315 315 315 315 314 314 315 315 313 310 307
171 165 165 162 157 153 152 154 158 160 165 161 143 151 163 168 168 162 162 169 177 181 185 174 187 194 182 182 185 204 205 227 270 312 312 313 319 336 336 338 327 143 336 325 315 315 329 323 320 322 323 326 323 319 317 314 309 307 311 312 315 316 315 315 316 315 314 313 314 315 315 313 311 308
165 168 167 168 166 175 170 161 161 161 157 149 147 153 154 167 330 348 117 176 180 193 187 181 194 193 191 181 192 193 215 226 244 248 277 297 319 328 332 331 333 350 342 315 312 317 329 330 324 320 322 321 319 312 300 297 305 312 310 311 314 315 315 315 315 314 313 313 314 316 316 314 312 308
171 169 168 166 171 162 153 161 168 163 157 153 158 161 159 166 194 212 4 349 323 195 200 194 193 201 189 195 196 200 232 280 279 287 288 329 314 310 312 330 323 321 325 295 319 325 322 330 331 323 327 328 320 307 300 307 309 308 308 310 313 314 314 314 315 314 313 314 316 317 318 317 314 311
173 172 172 172 172 165 172 178 169 168 160 159 159 164 180 189 193 204 210 218 278 286 225 209 205 196 200 212 189 176 213 245 268 289 299 317 311 313 314 308 297 293 262 291 318 304 334 337 322 320 328 327 318 308 306 299 299 304 309 311 312 311 310 312 312 312 313 315 317 319 319 318 316 314
175 175 175 177 175 170 176 174 171 168 164 160 161 169 182 202 202 206 203 204 206 203 219 222 223 200 207 232 235 220 233 250 269 287 296 302 296 291 284 268 260 291 189 248 276 320 326 331 320 320 324 324 317 315 305 297 297 304 310 311 308 306 307 310 311 311 313 316 319 322 321 320 320 317
179 176 173 175 174 171 175 159 165 165 155 159 167 178 190 205 210 216 137 41 274 232 217 216 226 232 19 355 306 322 304 273 261 265 260 257 254 265 291 317 332 326 354 181 297 314 323 325 318 318 320 320 316 314 309 310 305 307 306 304 302 302 306 308 310 311 313 317 322 324 324 323 323 322
174 172 175 178 173 170 176 157 162 152 158 170 176 183 193 203 205 214 168 159 204 255 286 300 310 309 301 278 272 265 256 257 290 284 267 254 264 293 308 318 325 329 323 258 282 314 307 329 325 316 315 317 305 306 316 318 315 305 296 295 301 304 305 308 309 309 312 319 324 327 328 328 327 322
177 176 173 177 175 173 173 156 166 161 168 178 180 188 193 194 202 207 181 177 174 163 220 244 258 264 267 267 267 262 245 215 216 232 265 324 310 300 310 315 323 320 314 36 45 308 319 325 326 318 311 303 306 314 317 316 309 304 307 316 309 305 305 304 305 304 310 317 325 332 336 335 330 335
179 177 181 180 177 182 157 161 168 173 181 186 185 188 192 195 202 207 190 192 196 196 210 221 220 239 232 239 246 241 202 200 208 227 253 277 287 304 313 313 315 317 329 61 124 317 322 323 323 322 320 319 312 316 322 315 316 318 322 328 327 324 308 303 300 306 309 313 326 340 343 341 336 341
182 178 181 185 186 179 160 171 175 180 190 191 189 188 196 196 202 201 198 204 212 210 218 224 215 233 243 240 242 242 212 199 207 223 235 251 271 291 305 310 312 314 321 51 125 317 305 307 313 327 318 316 321 327 319 318 317 320 328 329 329 331 326 322 329 328 323 324 333 350 347 341 338 337
180 181 185 185 184 185 175 175 179 182 191 201 192 194 198 203 157 132 196 194 206 224 220 227 227 233 235 233 234 230 221 209 198 213 225 235 249 266 291 305 307 311 316 35 142 312 310 313 311 321 320 310 301 312 318 312 318 330 333 330 331 332 333 334 333 335 338 342 1 4 346 339 334 333
185 184 182 187 175 182 182 182 182 187 191 197 205 200 204 132 122 166 202 189 192 215 218 223 226 229 234 236 236 236 237 229 196 214 222 223 236 242 253 272 292 305 314 119 159 311 302 308 319 315 314 318 310 309 312 320 330 333 330 335 335 332 336 336 336 336 339 346 351 360 344 336 332 331
187 186 182 184 169 179 180 181 185 190 195 188 209 205 180 149 156 151 206 193 199 212 218 223 229 232 235 238 239 240 242 243 224 236 240 243 243 243 243 248 249 266 278 295 299 298 276 282 305 310 309 310 307 311 317 329 329 329 331 340 337 339 341 338 339 338 338 344 347 347 339 340 334 331
180 180 183 175 169 178 183 186 187 192 184 195 206 203 175 156 158 188 180 197 210 215 224 225 231 235 236 239 243 245 250 268 304 299 286 269 244 241 247 238 242 246 266 277 283 279 271 286 304 312 306 303 305 317 322 318 322 328 334 335 334 340 337 339 341 339 340 343 347 347 345 346 343 335
184 184 177 173 173 181 186 190 191 187 190 202 203 193 163 159 187 191 203 205 210 219 226 230 234 238 238 241 247 270 314 304 284 272 269 261 249 237 237 246 250 249 230 240 245 249 275 284 298 306 306 303 299 310 318 320 323 328 336 334 340 339 337 343 340 342 340 339 342 346 354 345 334 337
180 171 174 174 177 181 186 185 188 195 196 203 199 169 164 188 199 200 203 210 212 228 230 232 237 241 244 241 236 265 268 274 274 272 280 288 277 251 259 277 281 288 278 230 222 236 252 285 284 294 301 308 313 312 323 323 319 324 336 342 336 323 340 342 343 342 341 339 338 339 356 346 330 335
164 167 171 178 179 181 179 185 178 193 158 157 169 180 192 205 202 196 208 213 220 228 238 240 243 243 248 260 255 254 243 256 263 247 261 272 280 284 281 285 289 293 300 312 286 201 285 278 287 278 290 303 307 310 319 311 310 327 338 342 342 341 337 340 342 341 340 333 331 327 336 354 346 347
165 161 161 154 166 154 151 180 181 188 180 182 177 186 192 199 199 196 169 217 233 239 241 251 253 257 251 253 253 250 251 260 264 228 240 251 272 273 277 281 290 301 308 310 321 242 208 273 288 291 264 262 287 302 316 310 322 336 337 341 338 335 337 342 339 339 337 331 336 341 347 355 349 344
135 148 165 178 175 179 180 178 189 181 180 180 185 186 188 189 190 191 201 211 219 223 223 232 240 247 246 248 249 250 258 261 260 218 231 231 256 262 259 273 285 298 307 318 319 324 333 325 304 295 288 276 247 245 271 317 340 342 342 341 342 339 342 340 339 334 331 337 342 341 341 347 357 354
166 179 183 184 184 183 188 188 188 185 185 187 187 194 194 201 198 200 203 212 220 216 220 232 237 243 248 254 252 254 256 263 252 218 230 248 237 252 265 274 288 296 299 307 319 327 337 327 321 312 303 288 265 217 225 333 339 342 342 345 343 341 340 338 334 333 337 345 344 345 346 347 343 354
181 177 184 183 186 186 192 191 196 189 189 189 192 194 188 204 206 204 208 211 215 216 215 226 240 246 249 258 259 259 263 269 274 253 223 238 236 247 260 276 288 299 305 310 313 327 330 324 326 328 332 341 346 12 161 33 1 342 340 345 347 340 339 336 332 337 345 348 352 352 346 346 353 358
189 188 188 186 192 192 197 193 196 198 202 198 201 199 195 200 200 198 209 206 209 209 215 221 229 236 245 251 251 255 264 267 271 266 249 240 236 241 249 260 279 289 294 302 312 329 330 322 328 330 335 340 346 344 17 187 355 355 344 341 343 342 334 333 335 341 350 352 355 356 353 349 351 356
187 189 196 196 196 194 197 195 198 200 204 204 204 204 199 199 195 202 209 198 208 213 218 219 227 233 236 235 242 246 253 251 259 255 254 247 235 233 246 250 252 264 280 301 313 315 313 323 327 325 330 336 341 346 343 11 206 231 7 343 339 344 334 335 339 348 350 350 352 359 357 353 353 353
190 185 197 202 201 199 198 200 192 197 204 207 207 206 210 213 209 199 189 187 203 210 215 221 230 226 231 221 233 247 248 245 251 255 252 246 241 242 245 263 279 283 294 304 303 307 303 313 322 331 329 330 333 337 338 331 351 146 111 5 344 338 342 339 345 347 348 351 348 344 344 351 346 342
183 182 197 191 191 198 196 200 196 200 203 204 207 211 213 218 217 197 186 200 202 208 213 214 212 203 213 227 234 242 249 249 245 247 245 242 237 244 249 254 264 273 281 295 305 307 312 313 343 337 332 328 316 329 318 310 314 327 12 86 352 349 351 342 341 341 350 348 345 341 345 344 306 326
187 196 195 186 193 198 203 198 201 203 203 207 213 217 218 217 214 208 200 192 200 205 204 204 211 214 222 231 233 237 245 249 252 260 256 251 232 232 243 252 260 275 275 284 294 307 320 342 354 334 325 307 296 281 296 289 277 270 293 148 204 13 356 348 340 342 350 350 339 344 346 350 2 5
190 196 193 193 198 201 201 200 198 200 206 209 212 211 219 222 219 208 196 188 188 183 194 204 206 211 223 221 218 220 243 249 247 250 253 248 239 226 190 191 254 241 266 281 291 299 322 7 56 88 259 279 268 268 255 284 335 353 353 3 154 160 207 291 338 344 352 345 351 350 351 354 355 7
187 194 195 196 203 204 203 204 201 202 206 204 209 208 213 218 219 195 196 197 200 197 203 206 209 216 217 218 230 231 240 250 256 249 237 236 225 199 175 210 253 248 240 275 284 302 7 80 171 202 233 246 289 324 339 348 332 339 345 341 352 1 22 341 298 272 338 12 3 7 355 354 359 16
185 195 197 199 204 207 208 207 206 199 196 205 209 207 207 209 208 199 207 200 203 208 217 222 221 219 220 222 229 232 239 238 240 243 243 229 225 223 214 220 238 250 255 263 277 289 289 264 254 292 276 279 344 316 327 340 322 329 338 349 346 340 342 350 334 349 142 55 63 38 14 354 358 22
188 193 199 198 199 202 205 204 198 192 202 206 209 208 210 206 205 206 211 215 216 220 221 227 228 227 228 237 242 239 235 241 237 234 229 227 213 214 229 244 240 241 247 259 266 271 255 220 239 281 308 336 341 325 338 324 332 343 336 342 332 336 344 351 355 16 159 158 59 58 50 35 360 276
187 193 197 196 197 198 202 203 204 205 204 206 207 209 208 209 215 213 213 215 221 221 222 226 228 229 227 231 233 234 235 231 239 237 233 226 214 210 216 229 247 236 244 249 262 270 272 282 266 218 278 307 299 317 309 301 310 319 325 332 339 349 350 351 350 355 8 15 31 22 19 27 30 15